TimeCST,TemperatureF,Dew PointF,Humidity,Sea Level PressureIn,VisibilityMPH,Wind Direction,Wind SpeedMPH,Gust SpeedMPH,PrecipitationIn,Events,Conditions,WindDirDegrees,DateUTC
5:34 AM,44.6,39.2,81,30.31,8.0,NW,3.5,-,N/A,,Overcast,320,2012-11-02 11:34:00
5:42 AM,44.6,39.2,81,30.31,8.0,NNW,4.6,-,N/A,,Overcast,330,2012-11-02 11:42:00
5:50 AM,50,42,65,29.96,3,Calm,Calm,,,,Overcast,,2012-11-02 11:50:00
6:43 AM,44.6,39.2,81,30.33,8.0,Calm,Calm,-,N/A,,Overcast,0,2012-11-02 12:43:00
7:45 AM,46.4,41.0,81,30.33,8.0,NNW,5.8,-,N/A,,Overcast,340,2012-11-02 13:45:00
8:40 AM,53.6,42.8,67,30.35,8.0,NNW,5.8,-,N/A,,Overcast,340,2012-11-02 14:40:00
8:50 AM,54,43,55,30.03,6,Calm,Calm,,,,Overcast,,2012-11-02 14:50:00
9:45 AM,57.2,39.2,51,30.36,8.0,Calm,Calm,-,N/A,,Overcast,0,2012-11-02 15:45:00
10:42 AM,59.0,39.2,48,30.35,8.0,Calm,Calm,-,N/A,,Overcast,0,2012-11-02 16:42:00
11:44 AM,60.8,37.4,42,30.33,8.0,Calm,Calm,-,N/A,,Overcast,0,2012-11-02 17:44:00
11:50 AM,63,39,29,30.00,3,Calm,Calm,,,,Overcast,,2012-11-02 17:50:00
12:46 PM,64.4,32.0,30,30.30,8.0,SSE,5.8,-,N/A,,Overcast,150,2012-11-02 18:46:00
1:42 PM,64.4,33.8,32,30.27,8.0,South,5.8,-,N/A,,Overcast,180,2012-11-02 19:42:00
2:40 PM,64.4,35.6,34,30.26,8.0,SSE,6.9,-,N/A,,Overcast,160,2012-11-02 20:40:00
2:50 PM,66,35,21,29.87,12,SSE,2.2,,,,Mostly Cloudy,150,2012-11-02 20:50:00
3:41 PM,64.4,37.4,37,30.25,8.0,SSE,6.9,-,N/A,,Overcast,150,2012-11-02 21:41:00
4:43 PM,60.8,41.0,48,30.27,8.0,SSW,5.8,-,N/A,,Overcast,210,2012-11-02 22:43:00
5:44 PM,59.0,42.8,55,30.27,8.0,SW,6.9,-,N/A,,Overcast,220,2012-11-02 23:44:00
5:50 PM,61,39,32,29.83,12,ESE,2.2,,,,Overcast,120,2012-11-02 23:50:00
6:43 PM,55.4,44.6,67,30.29,8.0,South,10.4,-,N/A,,Overcast,190,2012-11-03 00:43:00
7:47 PM,53.6,44.6,72,30.29,8.0,South,5.8,-,N/A,,Overcast,190,2012-11-03 01:47:00
8:54 PM,55.4,44.6,67,30.33,8.0,Calm,Calm,-,N/A,,Overcast,0,2012-11-03 02:54:00
8:58 PM,58,39,37,29.86,3,Calm,Calm,,,,Mostly Cloudy,,2012-11-03 02:58:00
9:43 PM,53.6,44.6,72,30.33,8.0,SSW,3.5,-,N/A,,Overcast,200,2012-11-03 03:43:00
10:43 PM,50.0,42.8,76,30.34,8.0,SSE,3.5,-,N/A,,Overcast,150,2012-11-03 04:43:00
11:50 PM,55,42,51,29.93,3,Calm,Calm,,,,Partly Cloudy,,2012-11-03 05:50:00